World > North America > United States > North Carolina

Hourly Willow Springs, NC Regional Weather

Feedback E-mail the Weather

Quick WX

Willow Springs, NC Weather Maps

°F °C°F °C
Willow Springs Weather Map
UTC Time: 6/28/2022, 18:47
Your Time:

Willow Springs, NC Regional Weather

Expires:202206281900;;340980
ASUS42 KRAH 281810
RWRRAH
NORTH CAROLINA WEATHER ROUNDUP
NATIONAL WEATHER SERVICE RALEIGH NC
200 PM EDT TUE JUN 28 2022

NOTE: "FAIR" INDICATES FEW OR NO CLOUDS BELOW 12,000 FEET WITH NO
SIGNIFICANT WEATHER AND/OR OBSTRUCTIONS TO VISIBILITY.


NCZ021-022-025-041-071-084-088-281900-
CENTRAL NORTH CAROLINA
  
CITY           SKY/WX    TMP DP  RH WIND       PRES   REMARKS
CHARLOTTE      CLOUDY    82  60  47 NE10G20   30.22S                  
GREENSBORO     CLOUDY    79  55  43 E9        30.23F                  
WINSTON-SALEM  PTSUNNY   80  55  42 E7        30.25F                  
RALEIGH-DURHAM PTSUNNY   83  55  38 E8        30.23S                  
FORT BRAGG     PTSUNNY   83  53  35 NE7       30.18F                  
FAYETTEVILLE   PTSUNNY   85  54  34 VRB5      30.19S                  
BURLINGTON     PTSUNNY   80  52  37 NE6       30.23F                  
ROXBORO        PTSUNNY   77  52  41 CALM      30.26F                  
HENDERSON      PTSUNNY   78  49  35 NE8       30.24S                  
LOUISBURG      CLOUDY    77  54  44 NE8       30.25F                  
LAURINBURG     CLOUDY    87  56  34 NE9       30.19F                  
$$
 

SKY/WX - Weather  TMP - Temperature  DP - Dew Point  RH - Humidity
WIND - Wind Direction/Speed PRES - Barometric Pressure VSB - Visibility
WCI - Wind Chill Index E13G22 Wind - East Wind 13 mph/Gusts of 22 mph

Trending Headlines

Willow Springs Radar Loop



Willow Springs Quick Facts


National Two Day Weather Forecast


E-mail the Willow Springs Weather Forecast

Voice your opinion or tell us about page issues...